Location: Egypte
(52.9667°N, 6.1667°E)
Time: 22:47:41
(UTC+00:00)

Daily predictions for brighter satellites

Satellite Brightness Start Highest point End
(mag) Time Altitude Azimuth Time Altitude Azimuth Time Altitude Azimuth
Cosmos 2154 Rocket 4.1 18:55:40 10° S 19:01:53 63° E 19:08:08 10° NNE
Meteor 1-24 Rocket 3.9 18:57:15 10° NNW 19:02:42 79° WSW 19:08:17 10° S
NOSS 3-2 (C) 4.1 18:56:01 10° NW 19:03:01 88° NE 19:11:37 10° SE
NOSS 2-3 (D) 4.2 18:58:54 10° NW 19:03:35 74° NE 19:09:51 10° SE
Cosmos 2219 Rocket 2.4 18:59:19 10° S 19:04:41 50° ESE 19:10:04 10° NE
USA 59 Rocket 1.4 19:03:00 10° NNW 19:05:09 18° NNE 19:07:32 10° ENE
Okean-O 4.0 19:03:55 10° ESE 19:07:23 24° ENE 19:10:53 10° N
CZ-4B R/B 3.6 19:04:44 10° SSE 19:08:20 80° ENE 19:12:06 10° NNW
Cosmos 1666 Rocket 3.7 19:05:55 10° SSW 19:10:12 78° WNW 19:14:31 10° N
Cosmos 1633 Rocket 3.1 19:05:52 10° S 19:10:14 89° ESE 19:14:39 10° N
Cosmos 1953 2.3 19:10:56 10° SSW 19:14:30 75° WNW 19:18:08 10° N
Cosmos 2369 Rocket 4.3 19:14:18 10° NNW 19:17:39 16° NNE 19:21:01 10° ENE
Lacrosse 5 rocket 2.0 19:15:16 10° S 19:17:47 21° SE 19:20:17 10° E
Spot 2 Rocket 4.3 19:15:11 10° SE 19:19:42 35° ENE 19:24:14 10° N
Cosmos 2184 Rocket 4.1 19:13:21 10° S 19:19:44 87° E 19:26:08 10° N
MetOp-B 4.3 19:16:18 10° SSE 19:21:33 60° ENE 19:26:51 10° N
ERS-1 Rocket 3.0 19:17:23 10° SSE 19:22:19 64° ENE 19:27:17 10° N
Helios 1A Rocket 2.4 19:21:59 10° NNE 19:25:10 52° ESE 19:28:19 10° S
CSL-04 Rocket 4.0 19:19:44 10° S 19:25:15 72° WSW 19:30:51 10° NNW
COSMOS 2428 3.6 19:21:26 10° SSE 19:26:12 28° ESE 19:31:00 10° NE
CZ-4B R/B 3.3 19:22:28 10° SSE 19:27:58 67° ENE 19:33:34 10° NNW
CZ-4B DEB 4.2 19:23:00 10° SSE 19:28:28 88° ENE 19:34:00 10° NNW
Cosmos 2278 Rocket 2.7 19:23:02 10° NNW 19:28:31 46° NE 19:33:30 12° ESE
Okean O Rocket 2.4 19:25:13 10° SE 19:29:07 35° ENE 19:33:06 10° N
Resurs 01 Rocket 4.2 19:26:05 10° SW 19:29:30 22° W 19:32:56 10° NW
PAYLOAD B 4.2 19:26:15 10° SSE 19:31:45 84° ENE 19:37:17 10° NNW
Meteor 1-15 Rocket 4.5 19:30:17 10° SSW 19:35:50 75° WNW 19:41:28 10° N
Cosmos 2341 Rocket 4.4 19:32:01 10° SSE 19:37:49 43° E 19:43:42 10° NNE
Cosmos 2333 Rocket 3.3 19:32:27 10° SW 19:37:58 50° NW 19:43:29 10° NNE
ATLAS 3B R/B 3.4 19:30:18 10° WSW 19:38:03 70° NW 19:45:59 10° NE
SeaSat 1 4.3 19:35:16 10° ENE 19:38:42 19° NNE 19:42:08 10° NNW
USA 186 2.3 19:38:23 19° E 19:38:58 21° ENE 19:40:42 10° NNE
Terra 1.8 19:35:43 10° SSE 19:40:24 78° ENE 19:45:07 10° NNW
Cosmos 494 Rocket 4.0 19:35:20 10° NNW 19:40:32 83° ENE 19:45:38 11° SSE
USA 229 DEB 4.3 19:36:14 10° WSW 19:42:23 58° NNW 19:49:24 10° NE
USA 229 4.3 19:36:17 10° WSW 19:42:26 59° NNW 19:49:28 10° NE
Aureole 1 Rocket 4.0 19:40:45 10° SW 19:43:40 34° WNW 19:46:27 10° N
Cosmos 1048 Rocket 4.2 19:43:13 10° NNW 19:48:14 54° ENE 19:52:08 17° SE
Cosmos 1943 Rocket 2.3 19:43:48 10° NNW 19:49:30 70° NE 19:54:06 16° SE
SL-08 R/B 3.6 19:45:24 10° NNE 19:50:07 47° E 19:54:51 10° S
ATLAS 5 CENTAUR R/B 3.5 19:48:33 10° WNW 19:50:54 19° NNW 19:53:29 10° NNE
BREEZE-M DEB (TANK) 3.0 19:48:53 10° SW 19:51:02 32° SSE 19:53:12 17° E
In-Cosmos 22 Rocket 4.1 19:52:54 10° NNW 19:58:18 89° W 20:03:36 10° S
ARIANE 6 FM1 Upper Stage 2.9 19:56:52 10° WSW 20:00:58 70° NW 20:05:00 10° NE
SL-8 Rocket 4.0 19:55:26 10° S 20:01:34 63° E 20:07:48 10° NNE
ASTEX 1 3.9 20:01:02 19° SE 20:04:03 40° ENE 20:08:37 10° N
Meteor 1-11 4.4 19:59:08 10° N 20:04:35 52° ENE 20:08:19 20° SE
Cosmos 1727 Rocket 4.5 19:59:52 10° N 20:05:59 46° ENE 20:10:10 20° SE
Cosmos 858 Rocket 4.5 20:00:53 10° SSW 20:06:10 88° ESE 20:11:27 10° NNE
ADEOS 3.9 20:03:35 10° S 20:08:45 66° WSW 20:13:58 10° NNW
Cosmos 1898 Rocket 4.4 20:04:42 10° SW 20:09:49 53° WNW 20:14:56 10° NNE
Cosmos 2366 rocket 3.9 20:06:09 10° S 20:12:15 68° E 20:18:22 10° NNE
Cosmos 2360 Rocket 3.4 20:07:34 10° WSW 20:12:58 44° NW 20:18:24 10° NNE
Cosmos 1378 Rocket 3.9 20:10:39 10° N 20:14:56 47° ENE 20:17:01 26° SE
Cosmos 1809 Rocket 4.4 20:12:16 10° N 20:18:27 88° E 20:23:47 14° S
Cosmos 1933 Rocket 4.1 20:16:39 10° SSW 20:20:58 60° WNW 20:25:21 10° N
Cosmos 2322 Rocket 3.8 20:16:34 10° WSW 20:21:47 38° NW 20:27:01 10° NNE
BREEZE-M DEB (TANK) 2.6 20:20:01 10° W 20:22:37 49° S 20:24:50 26° ESE
MOS 1-B 4.4 20:19:06 15° SSE 20:23:56 82° WSW 20:29:47 10° NNW
CZ-4 R/B 3.7 20:22:33 10° SW 20:25:26 20° W 20:28:19 10° NW
YAOGAN 11 3.9 20:24:42 10° NNE 20:28:57 73° ESE 20:32:27 15° S
CZ-2C R/B 2.6 20:30:09 39° ENE 20:30:15 39° ENE 20:33:01 10° N
SPOT 3 Rocket 3.6 20:29:51 27° SE 20:32:44 68° ENE 20:37:54 10° NNW
Meteor 2-15 4.3 20:26:46 10° S 20:32:48 76° E 20:38:54 10° NNE
CZ-4B R/B 2.5 20:32:14 40° SE 20:33:22 69° ENE 20:36:53 10° N
Cosmos 1733 Rocket 3.1 20:31:29 27° SSE 20:33:40 59° E 20:38:00 10° NNE
Cosmos 2237 Rocket 2.7 20:30:53 23° SSE 20:33:50 38° ESE 20:39:04 10° NE
Meteor 2-15 Rocket 4.5 20:29:50 18° SSE 20:34:18 59° E 20:40:17 10° NNE
USA 234 3.3 20:28:01 10° ENE 20:34:36 84° NNW 20:41:10 10° WSW
Cosmos 1980 4.1 20:31:12 19° S 20:34:44 41° ESE 20:40:00 10° NE
Cosmos 2218 Rocket 3.9 20:33:01 10° S 20:39:10 88° WNW 20:45:22 10° N
Cosmos 2322 3.7 20:33:33 10° SSW 20:39:16 89° WNW 20:45:03 10° NNE
Cosmos 1400 Rocket 2.9 20:39:37 41° E 20:39:38 41° E 20:43:03 10° NNE
Cosmos 2123 Rocket 4.4 20:35:53 10° N 20:41:54 47° ENE 20:44:42 29° SE
Okean-O 3.2 20:40:27 20° S 20:43:22 54° W 20:47:41 10° NNW
USA 238 DEB 4.0 20:36:52 10° NW 20:44:08 79° SW 20:48:50 27° SE
USA 238 4.0 20:37:02 10° NW 20:44:19 80° SW 20:49:00 28° SE
Cosmos 2219 Rocket 3.6 20:43:32 10° WSW 20:48:46 40° NW 20:54:02 10° NNE
Ariane Rocket 2.9 20:47:47 34° SSE 20:49:57 75° ENE 20:55:00 10° NNW
Cosmos 1821 Rocket 3.9 20:46:15 14° S 20:51:44 85° E 20:58:06 10° NNE
Helios 1B rocket 3.9 20:53:52 19° ENE 20:53:52 19° ENE 20:56:22 10° NNE
Lacrosse 5 rocket 0.6 20:50:54 10° WSW 20:54:06 80° NNW 20:54:38 58° NE
USA 59 Rocket -0.6 20:50:57 10° NW 20:54:08 77° NE 20:54:40 61° ESE
NOSS 8 (A) 4.1 20:52:46 10° NW 20:55:29 67° NNE 20:55:29 67° NNE
Cosmos 2239 Rocket 4.5 20:53:00 29° SSE 20:56:10 61° E 21:02:18 10° NNE
Spot 2 Rocket 4.4 20:54:48 16° SSW 20:58:31 43° W 21:03:19 10° NNW
Cosmos 1025 Rocket 2.9 20:55:04 10° N 20:59:19 74° ENE 21:00:14 52° SE
Timation 2 Rocket 4.4 20:56:09 10° NW 21:02:16 58° WSW 21:05:42 27° S
Cosmos 2369 Rocket 3.0 20:58:01 10° NNW 21:03:17 40° NE 21:05:35 28° E
Cosmos 192 4.3 20:59:30 10° SSW 21:04:25 84° WNW 21:09:22 10° NNE
USA 32 4.5 21:00:01 13° SSW 21:04:40 61° W 21:09:52 10° N
Cosmos 2242 Rocket 4.4 21:00:26 10° NNW 21:04:47 49° W 21:07:01 26° SSW
Okean O Rocket 3.0 21:02:28 16° SSW 21:05:20 33° W 21:09:17 10° NNW
Cosmos 1346 Rocket 2.4 21:01:50 10° N 21:05:28 74° ENE 21:05:35 73° E
Cosmos 614 Rocket 4.0 21:03:16 10° NNW 21:08:27 71° WSW 21:10:17 40° S
USA 186 4.1 21:08:38 11° W 21:08:38 11° W 21:09:17 10° WNW
COSMOS 2428 3.1 21:04:19 10° SW 21:10:02 66° NW 21:15:46 10° NNE
Cosmos 1000 Rocket 4.4 21:04:24 10° N 21:10:39 88° W 21:13:30 34° S
SL-08 R/B 4.4 21:06:18 10° N 21:12:29 73° ENE 21:14:51 40° SSE
Cosmos 2278 Rocket 3.1 21:07:16 10° NW 21:12:35 42° WSW 21:15:21 25° SSW
SeaSat 1 2.6 21:14:00 45° ESE 21:15:21 64° NE 21:20:13 10° NNW
NOSS 2-1 (E) 2.9 21:12:13 10° NW 21:15:22 79° NNE 21:15:22 79° NNE
NOSS 2-1 (C) 2.9 21:14:18 10° NW 21:17:20 82° WNW 21:17:20 82° WNW
Terra 4.3 21:15:28 10° SW 21:18:30 17° W 21:21:33 10° NW
Cosmos 1975 Rocket 4.1 21:15:17 10° N 21:19:19 32° ENE 21:19:31 32° ENE
CZ-4B R/B 3.9 21:18:00 33° SSW 21:19:55 53° WSW 21:24:38 10° NNW
NOSS 2-1 (D) 3.1 21:18:09 10° NW 21:21:07 69° W 21:21:07 69° W
ARIANE 5 R/B 4.3 21:23:15 20° ENE 21:23:42 20° ENE 21:26:54 10° N
Cosmos 1656 Rocket 3.5 21:21:59 10° NNW 21:27:27 88° WSW 21:28:49 53° SSE
NOSS 3-4 (A) 3.0 21:23:22 14° SSW 21:27:59 71° SE 21:33:55 10° NE
NOSS 3-4 (C) 3.0 21:24:10 16° SSW 21:28:29 71° SE 21:34:26 10° NE
Helios 1A 4.2 21:26:13 10° NNE 21:28:41 28° ENE 21:28:41 28° ENE
ATLAS 3B R/B 4.3 21:22:45 10° W 21:30:05 40° NNW 21:37:25 10° ENE
Cosmos 2058 4.2 21:28:50 10° N 21:31:47 27° NE 21:31:47 27° NE
Cosmos 1943 Rocket 3.8 21:28:10 10° NW 21:32:45 26° WSW 21:35:37 17° SW
Cosmos 1674 Rocket 4.3 21:29:12 10° NNW 21:33:19 46° W 21:34:19 38° SW
ATLAS 5 CENTAUR R/B 3.7 21:31:40 10° NNW 21:34:10 18° NNE 21:36:59 10° NE
Cosmos 1908 Rocket 3.4 21:36:48 79° ESE 21:36:50 79° E 21:41:11 10° NNE
TSX-5 3.9 21:38:45 78° SSE 21:38:53 79° SE 21:43:02 10° NE
NOSS 3-1 (C) 4.0 21:33:11 10° NW 21:39:38 66° NE 21:43:34 32° ESE
SL-08 R/B 4.4 21:38:09 39° S 21:40:39 88° W 21:46:49 10° N
NOSS 0 Rocket 4.3 21:35:33 10° SW 21:41:45 64° NW 21:47:58 10° NNE
SL-16 R/B 2.9 21:43:18 36° E 21:43:18 36° E 21:47:46 10° NE
Cosmos 1782 Rocket 4.1 21:46:16 45° ENE 21:46:16 45° ENE 21:49:43 10° NNE
Cosmos 2221 Rocket 4.0 21:45:47 10° NNW 21:50:03 52° W 21:50:29 50° WSW
Cosmos 1315 Rocket 4.5 21:55:15 23° NE 21:55:15 23° NE 21:57:00 10° NNE
Cosmos 1125 Rocket 3.7 21:52:54 34° SW 21:55:08 69° WNW 22:00:25 10° NNE
Cosmos 1269 Rocket 4.4 21:56:01 10° NNW 22:01:11 53° ENE 22:01:51 49° E
SJ 16-02 3.4 22:00:18 10° N 22:03:16 18° NE 22:04:01 17° ENE
DNEPR-1 R/B 4.1 22:02:59 26° WSW 22:05:09 56° NW 22:09:39 10° NE
RESURS DK-1 3.1 22:17:45 46° N 22:17:45 46° N 22:20:45 10° NNE
Cosmos 921 Rocket 3.7 22:12:52 10° NNW 22:16:52 47° NE 22:16:52 47° NE
USA 234 3.6 22:10:59 10° ENE 22:17:26 64° N 22:23:54 10° W
Cosmos 2237 Rocket 3.0 22:12:32 11° SW 22:17:47 50° NW 22:23:21 10° NNE
Cosmos 2150 Rocket 3.9 22:19:04 70° ENE 22:19:04 70° ENE 22:23:55 10° NNE
Spot 4 4.1 22:21:42 59° ENE 22:21:42 59° ENE 22:26:12 10° N
Cosmos 2297 3.6 22:17:47 10° NNW 22:23:34 78° WSW 22:24:01 73° SSW
Helios 1B rocket 3.7 22:27:51 31° NW 22:27:51 31° NW 22:30:01 10° NNW
Cosmos 1934 Rocket 4.5 22:26:12 35° SW 22:28:40 55° WNW 22:34:49 10° N
Cosmos 2346 Rocket 4.4 22:22:47 10° NNW 22:28:55 76° W 22:29:53 63° SSW
Cosmos 1300 Rocket 4.2 22:30:16 51° WNW 22:30:16 51° WNW 22:34:13 10° N
Cosmos 1447 Rocket 4.4 22:24:11 10° NNW 22:30:32 83° W 22:31:31 65° S
NOSS 3-1 (A) 4.1 22:25:01 10° NW 22:31:33 65° NE 22:35:19 33° ESE
Cosmos 1023 Rocket 4.4 22:27:46 10° NNW 22:32:46 83° WNW 22:32:46 83° WNW
Cosmos 2369 Rocket 2.6 22:42:03 10° NW 22:47:20 49° WSW 22:47:20 49° WSW
COSMOS 2455 3.1 22:41:27 10° NW 22:47:28 62° NE 22:48:41 51° E
Cosmos 2285 Rocket 4.1 22:46:16 51° SW 22:47:57 74° WNW 22:54:20 10° NNE
Cosmos 967 Rocket 4.5 22:42:29 10° NW 22:48:55 65° SW 22:49:18 64° SW
ALOS 2 3.1 22:50:27 59° N 22:50:27 59° N 22:54:03 10° NNW
SeaSat 1 3.9 22:53:36 26° W 22:53:36 26° W 22:57:12 10° NW
Cosmos 407 Rocket 3.5 22:50:36 10° NNW 22:55:34 72° NE 22:55:34 72° NE
Cosmos 2263 4.5 22:50:38 10° NW 22:55:54 55° WSW 22:55:54 55° WSW
Cosmos 1459 Rocket 4.1 22:55:58 58° ESE 22:56:23 59° E 23:02:37 10° NNE
Cosmos 1816 Rocket 4.4 22:50:44 10° N 22:56:57 68° ENE 22:57:33 64° ESE
Cosmos 1975 Rocket 4.4 22:53:01 10° NNW 22:56:31 33° WNW 22:56:31 33° WNW
Cosmos 1605 Rocket 4.4 22:57:19 46° WSW 22:58:40 55° WNW 23:04:41 10° N
ARIANE 5 R/B 3.4 23:00:37 48° NW 23:00:37 48° NW 23:03:57 10° NNW
Helios 1A 4.5 23:01:02 10° N 23:04:24 29° WNW 23:04:24 29° WNW
Cosmos 1943 3.5 23:05:53 56° E 23:05:53 56° E 23:10:50 10° NE
Cosmos 2016 Rocket 4.5 23:06:50 46° ESE 23:07:15 47° E 23:13:18 10° NNE
Cosmos 1140 Rocket 4.0 23:02:46 10° NNW 23:07:07 47° W 23:07:07 47° W
Tsikada Rocket 4.4 23:05:17 10° N 23:11:29 51° ENE 23:12:28 47° E
MetOp-A 4.0 23:15:38 72° N 23:15:38 72° N 23:20:12 10° NNW
ATLAS 5 CENTAUR R/B 2.6 23:13:26 10° NW 23:16:33 39° NNE 23:16:33 39° NNE
Cosmos 1818 4.4 23:12:31 10° NW 23:17:48 46° NE 23:19:35 34° E
NOSS 3-4 (A) 4.4 23:13:59 10° W 23:19:13 42° NNW 23:25:12 10° NE
NOSS 3-4 (C) 4.4 23:14:27 10° W 23:19:43 42° NNW 23:25:44 10° NE
Cosmos 2173 Rocket 3.7 23:19:34 81° SSE 23:19:54 86° E 23:26:02 10° N
Cosmos 304 Rocket 4.2 23:17:16 10° NNW 23:21:06 58° NW 23:21:06 58° NW
ATLAS 3B R/B 4.1 23:15:17 10° NW 23:22:43 41° NNE 23:29:56 10° E
CZ-2C R/B 2.8 23:24:29 67° E 23:24:42 68° ENE 23:30:11 10° N
Cosmos 44 3.5 23:25:38 74° N 23:25:38 74° N 23:30:38 10° NE
Cosmos 2100 Rocket 3.8 23:25:58 77° SW 23:26:25 84° W 23:32:38 10° N
SL-16 R/B 2.9 23:25:06 40° W 23:26:35 50° NW 23:32:07 10° NNE
NOSS 3-1 (C) 4.3 23:23:51 10° NW 23:30:31 48° SW 23:30:52 48° SW
Meteor 2-3 Rocket 3.8 23:32:01 10° NNW 23:37:26 67° W 23:37:26 67° W
Cosmos 371 Rocket 3.9 23:35:26 10° NNW 23:39:07 49° NW 23:39:07 49° NW
USA 281 4.1 23:37:03 23° ESE 23:40:47 44° NE 23:46:57 10° NNW
SJ 16-02 2.4 23:37:38 10° NNW 23:40:30 41° NNW 23:40:30 41° NNW
Cosmos 1190 Rocket 4.0 23:38:58 10° NNW 23:43:59 78° N 23:43:59 78° N
ACS3 Solar Sail 3.1 23:44:22 10° NNE 23:49:17 26° E 23:50:19 24° ESE
ARGOS Delta rocket 4.2 23:46:48 10° N 23:50:16 55° N 23:50:16 55° N
Meteor 2-12 Rocket 4.2 23:46:18 10° N 23:52:24 89° E 23:52:44 81° SSE
